owner,sensor,date,latitude,longitude,vertical_datum,sea_water_temperature,qcFlag 
WAVCIS,ioos:station:WAVCIS:CSI16:1,2009-06-01T00:00:00Z,29.4012,-89.0355,10.0,27.691,11111222 
WAVCIS,ioos:station:WAVCIS:CSI16:1,2009-06-01T00:15:00Z,29.4012,-89.0355,10.0,27.774,11111222 
WAVCIS,ioos:station:WAVCIS:CSI16:1,2009-06-01T00:30:00Z,29.4012,-89.0355,10.0,27.822,11111222 
WAVCIS,ioos:station:WAVCIS:CSI16:1,2009-06-01T00:45:00Z,29.4012,-89.0355,10.0,27.0,11111222 
WAVCIS,ioos:station:WAVCIS:CSI16:1,2009-06-01T01:00:00Z,29.4012,-89.0355,10.0,27.445,11111222 
WAVCIS,ioos:station:WAVCIS:CSI16:1,2009-06-01T01:15:00Z,29.4012,-89.0355,10.0,27.382,11111222 
WAVCIS,ioos:station:WAVCIS:CSI16:1,2009-06-01T01:30:00Z,29.4012,-89.0355,10.0,27.43,11111222 
WAVCIS,ioos:station:WAVCIS:CSI16:1,2009-06-01T01:45:00Z,29.4012,-89.0355,10.0,27.319,11111222 
WAVCIS,ioos:station:WAVCIS:CSI16:1,2009-06-01T02:00:00Z,29.4012,-89.0355,10.0,27.462,11111222 
WAVCIS,ioos:station:WAVCIS:CSI16:1,2009-06-01T02:15:00Z,29.4012,-89.0355,10.0,27.056,11111222 
WAVCIS,ioos:station:WAVCIS:CSI16:1,2009-06-01T02:30:00Z,29.4012,-89.0355,10.0,27.359,11111222 
WAVCIS,ioos:station:WAVCIS:CSI16:1,2009-06-01T02:45:00Z,29.4012,-89.0355,10.0,27.275,11111222 
WAVCIS,ioos:station:WAVCIS:CSI16:1,2009-06-01T03:00:00Z,29.4012,-89.0355,10.0,27.231,11111222 
WAVCIS,ioos:station:WAVCIS:CSI16:1,2009-06-01T03:15:00Z,29.4012,-89.0355,10.0,27.437,11111222 
WAVCIS,ioos:station:WAVCIS:CSI16:1,2009-06-01T03:30:00Z,29.4012,-89.0355,10.0,27.563,11111222 
WAVCIS,ioos:station:WAVCIS:CSI16:1,2009-06-01T03:45:00Z,29.4012,-89.0355,10.0,27.409,11111222 
WAVCIS,ioos:station:WAVCIS:CSI16:1,2009-06-01T04:00:00Z,29.4012,-89.0355,10.0,27.395,11111222 
WAVCIS,ioos:station:WAVCIS:CSI16:1,2009-06-01T04:15:00Z,29.4012,-89.0355,10.0,27.293,11111222 
WAVCIS,ioos:station:WAVCIS:CSI16:1,2009-06-01T04:30:00Z,29.4012,-89.0355,10.0,27.254,11111222 
WAVCIS,ioos:station:WAVCIS:CSI16:1,2009-06-01T04:45:00Z,29.4012,-89.0355,10.0,27.192,11111222 
WAVCIS,ioos:station:WAVCIS:CSI16:1,2009-06-01T05:00:00Z,29.4012,-89.0355,10.0,27.211,11111222 
WAVCIS,ioos:station:WAVCIS:CSI16:1,2009-06-01T05:15:00Z,29.4012,-89.0355,10.0,27.072,11111222 
WAVCIS,ioos:station:WAVCIS:CSI16:1,2009-06-01T05:30:00Z,29.4012,-89.0355,10.0,27.114,11111222 
WAVCIS,ioos:station:WAVCIS:CSI16:1,2009-06-01T05:45:00Z,29.4012,-89.0355,10.0,27.169,11111222 
WAVCIS,ioos:station:WAVCIS:CSI16:1,2009-06-01T06:00:00Z,29.4012,-89.0355,10.0,27.174,11111222 
WAVCIS,ioos:station:WAVCIS:CSI16:1,2009-06-01T06:15:00Z,29.4012,-89.0355,10.0,27.206,11111222 
WAVCIS,ioos:station:WAVCIS:CSI16:1,2009-06-01T06:30:00Z,29.4012,-89.0355,10.0,27.058,11111222 
WAVCIS,ioos:station:WAVCIS:CSI16:1,2009-06-01T06:45:00Z,29.4012,-89.0355,10.0,27.024,11111222 
WAVCIS,ioos:station:WAVCIS:CSI16:1,2009-06-01T07:00:00Z,29.4012,-89.0355,10.0,27.065,11111222 
WAVCIS,ioos:station:WAVCIS:CSI16:1,2009-06-01T07:15:00Z,29.4012,-89.0355,10.0,27.094,11111222 
WAVCIS,ioos:station:WAVCIS:CSI16:1,2009-06-01T07:30:00Z,29.4012,-89.0355,10.0,27.101,11111222 
WAVCIS,ioos:station:WAVCIS:CSI16:1,2009-06-01T07:45:00Z,29.4012,-89.0355,10.0,27.099,11111222 
WAVCIS,ioos:station:WAVCIS:CSI16:1,2009-06-01T08:00:00Z,29.4012,-89.0355,10.0,27.101,11111222 
WAVCIS,ioos:station:WAVCIS:CSI16:1,2009-06-01T08:15:00Z,29.4012,-89.0355,10.0,27.144,11111222 
WAVCIS,ioos:station:WAVCIS:CSI16:1,2009-06-01T08:30:00Z,29.4012,-89.0355,10.0,27.145,11111222 
WAVCIS,ioos:station:WAVCIS:CSI16:1,2009-06-01T08:45:00Z,29.4012,-89.0355,10.0,27.154,11111222 
WAVCIS,ioos:station:WAVCIS:CSI16:1,2009-06-01T09:00:00Z,29.4012,-89.0355,10.0,27.135,11111222 
WAVCIS,ioos:station:WAVCIS:CSI16:1,2009-06-01T09:15:00Z,29.4012,-89.0355,10.0,27.141,11111222 
WAVCIS,ioos:station:WAVCIS:CSI16:1,2009-06-01T09:30:00Z,29.4012,-89.0355,10.0,27.197,11111222 
WAVCIS,ioos:station:WAVCIS:CSI16:1,2009-06-01T09:45:00Z,29.4012,-89.0355,10.0,27.192,11111222 
WAVCIS,ioos:station:WAVCIS:CSI16:1,2009-06-01T10:00:00Z,29.4012,-89.0355,10.0,27.122,11111222 
WAVCIS,ioos:station:WAVCIS:CSI16:1,2009-06-01T10:15:00Z,29.4012,-89.0355,10.0,27.078,11111222 
WAVCIS,ioos:station:WAVCIS:CSI16:1,2009-06-01T10:30:00Z,29.4012,-89.0355,10.0,27.055,11111222 
WAVCIS,ioos:station:WAVCIS:CSI16:1,2009-06-01T10:45:00Z,29.4012,-89.0355,10.0,27.062,11111222 
WAVCIS,ioos:station:WAVCIS:CSI16:1,2009-06-01T11:00:00Z,29.4012,-89.0355,10.0,26.962,11111222 
WAVCIS,ioos:station:WAVCIS:CSI16:1,2009-06-01T11:15:00Z,29.4012,-89.0355,10.0,26.77,11111222 
WAVCIS,ioos:station:WAVCIS:CSI16:1,2009-06-01T11:30:00Z,29.4012,-89.0355,10.0,26.897,11111222 
WAVCIS,ioos:station:WAVCIS:CSI16:1,2009-06-01T11:45:00Z,29.4012,-89.0355,10.0,26.921,11111222 
WAVCIS,ioos:station:WAVCIS:CSI16:1,2009-06-01T12:00:00Z,29.4012,-89.0355,10.0,26.344,11111222 
WAVCIS,ioos:station:WAVCIS:CSI16:1,2009-06-01T12:15:00Z,29.4012,-89.0355,10.0,26.557,11111222 
WAVCIS,ioos:station:WAVCIS:CSI16:1,2009-06-01T12:30:00Z,29.4012,-89.0355,10.0,26.381,11111222 
WAVCIS,ioos:station:WAVCIS:CSI16:1,2009-06-01T12:45:00Z,29.4012,-89.0355,10.0,25.946,11111222 
WAVCIS,ioos:station:WAVCIS:CSI16:1,2009-06-01T13:00:00Z,29.4012,-89.0355,10.0,26.228,11111222 
WAVCIS,ioos:station:WAVCIS:CSI16:1,2009-06-01T13:15:00Z,29.4012,-89.0355,10.0,26.078,11111222 
WAVCIS,ioos:station:WAVCIS:CSI16:1,2009-06-01T13:30:00Z,29.4012,-89.0355,10.0,25.871,11111222 
WAVCIS,ioos:station:WAVCIS:CSI16:1,2009-06-01T13:45:00Z,29.4012,-89.0355,10.0,26.189,11111222 
WAVCIS,ioos:station:WAVCIS:CSI16:1,2009-06-01T14:00:00Z,29.4012,-89.0355,10.0,26.156,11111222 
WAVCIS,ioos:station:WAVCIS:CSI16:1,2009-06-01T14:15:00Z,29.4012,-89.0355,10.0,26.294,11111222 
WAVCIS,ioos:station:WAVCIS:CSI16:1,2009-06-01T14:30:00Z,29.4012,-89.0355,10.0,26.313,11111222 
WAVCIS,ioos:station:WAVCIS:CSI16:1,2009-06-01T14:45:00Z,29.4012,-89.0355,10.0,26.512,11111222 
WAVCIS,ioos:station:WAVCIS:CSI16:1,2009-06-01T15:00:00Z,29.4012,-89.0355,10.0,26.448,11111222 
WAVCIS,ioos:station:WAVCIS:CSI16:1,2009-06-01T15:15:00Z,29.4012,-89.0355,10.0,26.4,11111222 
WAVCIS,ioos:station:WAVCIS:CSI16:1,2009-06-01T15:30:00Z,29.4012,-89.0355,10.0,26.338,11111222 
WAVCIS,ioos:station:WAVCIS:CSI16:1,2009-06-01T15:45:00Z,29.4012,-89.0355,10.0,26.378,11111222 
WAVCIS,ioos:station:WAVCIS:CSI16:1,2009-06-01T16:00:00Z,29.4012,-89.0355,10.0,26.498,11111222 
WAVCIS,ioos:station:WAVCIS:CSI16:1,2009-06-01T16:15:00Z,29.4012,-89.0355,10.0,26.54,11111222 
WAVCIS,ioos:station:WAVCIS:CSI16:1,2009-06-01T16:30:00Z,29.4012,-89.0355,10.0,26.756,11111222 
WAVCIS,ioos:station:WAVCIS:CSI16:1,2009-06-01T16:45:00Z,29.4012,-89.0355,10.0,26.735,11111222 
WAVCIS,ioos:station:WAVCIS:CSI16:1,2009-06-01T17:00:00Z,29.4012,-89.0355,10.0,26.528,11111222 
WAVCIS,ioos:station:WAVCIS:CSI16:1,2009-06-01T17:15:00Z,29.4012,-89.0355,10.0,26.819,11111222 
WAVCIS,ioos:station:WAVCIS:CSI16:1,2009-06-01T17:30:00Z,29.4012,-89.0355,10.0,26.806,11111222 
WAVCIS,ioos:station:WAVCIS:CSI16:1,2009-06-01T17:45:00Z,29.4012,-89.0355,10.0,26.567,11111222 
WAVCIS,ioos:station:WAVCIS:CSI16:1,2009-06-01T18:00:00Z,29.4012,-89.0355,10.0,26.896,11111222 
WAVCIS,ioos:station:WAVCIS:CSI16:1,2009-06-01T18:15:00Z,29.4012,-89.0355,10.0,26.958,11111222 
WAVCIS,ioos:station:WAVCIS:CSI16:1,2009-06-01T18:30:00Z,29.4012,-89.0355,10.0,26.952,11111222 
WAVCIS,ioos:station:WAVCIS:CSI16:1,2009-06-01T18:45:00Z,29.4012,-89.0355,10.0,27.804,11111222 
WAVCIS,ioos:station:WAVCIS:CSI16:1,2009-06-01T19:00:00Z,29.4012,-89.0355,10.0,28.273,11111222 
WAVCIS,ioos:station:WAVCIS:CSI16:1,2009-06-01T19:15:00Z,29.4012,-89.0355,10.0,27.192,11111222 
WAVCIS,ioos:station:WAVCIS:CSI16:1,2009-06-01T19:30:00Z,29.4012,-89.0355,10.0,26.997,11111222 
WAVCIS,ioos:station:WAVCIS:CSI16:1,2009-06-01T19:45:00Z,29.4012,-89.0355,10.0,28.221,11111222 
WAVCIS,ioos:station:WAVCIS:CSI16:1,2009-06-01T20:00:00Z,29.4012,-89.0355,10.0,28.089,11111222 
WAVCIS,ioos:station:WAVCIS:CSI16:1,2009-06-01T20:15:00Z,29.4012,-89.0355,10.0,28.115,11111222 
WAVCIS,ioos:station:WAVCIS:CSI16:1,2009-06-01T20:30:00Z,29.4012,-89.0355,10.0,27.721,11111222 
WAVCIS,ioos:station:WAVCIS:CSI16:1,2009-06-01T20:45:00Z,29.4012,-89.0355,10.0,28.343,11111222 
WAVCIS,ioos:station:WAVCIS:CSI16:1,2009-06-01T21:00:00Z,29.4012,-89.0355,10.0,28.313,11111222 
WAVCIS,ioos:station:WAVCIS:CSI16:1,2009-06-01T21:15:00Z,29.4012,-89.0355,10.0,28.276,11111222 
WAVCIS,ioos:station:WAVCIS:CSI16:1,2009-06-01T21:30:00Z,29.4012,-89.0355,10.0,28.283,11111222 
WAVCIS,ioos:station:WAVCIS:CSI16:1,2009-06-01T21:45:00Z,29.4012,-89.0355,10.0,28.286,11111222 
WAVCIS,ioos:station:WAVCIS:CSI16:1,2009-06-01T22:00:00Z,29.4012,-89.0355,10.0,28.02,11111222 
WAVCIS,ioos:station:WAVCIS:CSI16:1,2009-06-01T22:15:00Z,29.4012,-89.0355,10.0,27.604,11111222 
WAVCIS,ioos:station:WAVCIS:CSI16:1,2009-06-01T22:30:00Z,29.4012,-89.0355,10.0,27.624,11111222 
WAVCIS,ioos:station:WAVCIS:CSI16:1,2009-06-01T22:45:00Z,29.4012,-89.0355,10.0,27.646,11111222 
WAVCIS,ioos:station:WAVCIS:CSI16:1,2009-06-01T23:00:00Z,29.4012,-89.0355,10.0,27.591,11111222 
WAVCIS,ioos:station:WAVCIS:CSI16:1,2009-06-01T23:15:00Z,29.4012,-89.0355,10.0,27.66,11111222 
WAVCIS,ioos:station:WAVCIS:CSI16:1,2009-06-01T23:30:00Z,29.4012,-89.0355,10.0,27.643,11111222 
WAVCIS,ioos:station:WAVCIS:CSI16:1,2009-06-01T23:45:00Z,29.4012,-89.0355,10.0,27.606,11111222 
WAVCIS,ioos:station:WAVCIS:CSI16:1,2009-06-02T00:00:00Z,29.4012,-89.0355,10.0,27.561,11111222 
WAVCIS,ioos:station:WAVCIS:CSI16:1,2009-06-02T00:15:00Z,29.4012,-89.0355,10.0,27.588,11111222 
WAVCIS,ioos:station:WAVCIS:CSI16:1,2009-06-02T00:30:00Z,29.4012,-89.0355,10.0,27.962,11111222 
WAVCIS,ioos:station:WAVCIS:CSI16:1,2009-06-02T00:45:00Z,29.4012,-89.0355,10.0,27.499,11111222 
WAVCIS,ioos:station:WAVCIS:CSI16:1,2009-06-02T01:00:00Z,29.4012,-89.0355,10.0,27.382,11111222 
WAVCIS,ioos:station:WAVCIS:CSI16:1,2009-06-02T01:15:00Z,29.4012,-89.0355,10.0,27.916,11111222 
WAVCIS,ioos:station:WAVCIS:CSI16:1,2009-06-02T01:30:00Z,29.4012,-89.0355,10.0,28.127,11111222 
WAVCIS,ioos:station:WAVCIS:CSI16:1,2009-06-02T01:45:00Z,29.4012,-89.0355,10.0,27.624,11111222 
WAVCIS,ioos:station:WAVCIS:CSI16:1,2009-06-02T02:00:00Z,29.4012,-89.0355,10.0,29.479,11111222 
WAVCIS,ioos:station:WAVCIS:CSI16:1,2009-06-02T02:15:00Z,29.4012,-89.0355,10.0,29.73,11111222 
WAVCIS,ioos:station:WAVCIS:CSI16:1,2009-06-02T02:30:00Z,29.4012,-89.0355,10.0,29.564,11111222 
WAVCIS,ioos:station:WAVCIS:CSI16:1,2009-06-02T02:45:00Z,29.4012,-89.0355,10.0,29.402,11111222 
WAVCIS,ioos:station:WAVCIS:CSI16:1,2009-06-02T03:00:00Z,29.4012,-89.0355,10.0,28.763,11111222 
WAVCIS,ioos:station:WAVCIS:CSI16:1,2009-06-02T03:15:00Z,29.4012,-89.0355,10.0,29.038,11111222 
WAVCIS,ioos:station:WAVCIS:CSI16:1,2009-06-02T03:30:00Z,29.4012,-89.0355,10.0,27.921,11111222 
WAVCIS,ioos:station:WAVCIS:CSI16:1,2009-06-02T03:45:00Z,29.4012,-89.0355,10.0,27.678,11111222 
WAVCIS,ioos:station:WAVCIS:CSI16:1,2009-06-02T04:00:00Z,29.4012,-89.0355,10.0,27.479,11111222 
WAVCIS,ioos:station:WAVCIS:CSI16:1,2009-06-02T04:15:00Z,29.4012,-89.0355,10.0,27.087,11111222 
WAVCIS,ioos:station:WAVCIS:CSI16:1,2009-06-02T04:30:00Z,29.4012,-89.0355,10.0,27.334,11111222 
WAVCIS,ioos:station:WAVCIS:CSI16:1,2009-06-02T04:45:00Z,29.4012,-89.0355,10.0,27.147,11111222 
WAVCIS,ioos:station:WAVCIS:CSI16:1,2009-06-02T05:00:00Z,29.4012,-89.0355,10.0,27.079,11111222 
WAVCIS,ioos:station:WAVCIS:CSI16:1,2009-06-02T05:15:00Z,29.4012,-89.0355,10.0,27.194,11111222 
WAVCIS,ioos:station:WAVCIS:CSI16:1,2009-06-02T05:30:00Z,29.4012,-89.0355,10.0,27.202,11111222 
WAVCIS,ioos:station:WAVCIS:CSI16:1,2009-06-02T05:45:00Z,29.4012,-89.0355,10.0,27.188,11111222 
WAVCIS,ioos:station:WAVCIS:CSI16:1,2009-06-02T06:00:00Z,29.4012,-89.0355,10.0,27.196,11111222 
WAVCIS,ioos:station:WAVCIS:CSI16:1,2009-06-02T06:15:00Z,29.4012,-89.0355,10.0,27.212,11111222 
WAVCIS,ioos:station:WAVCIS:CSI16:1,2009-06-02T06:30:00Z,29.4012,-89.0355,10.0,27.234,11111222 
WAVCIS,ioos:station:WAVCIS:CSI16:1,2009-06-02T06:45:00Z,29.4012,-89.0355,10.0,27.256,11111222 
WAVCIS,ioos:station:WAVCIS:CSI16:1,2009-06-02T07:00:00Z,29.4012,-89.0355,10.0,27.316,11111222 
WAVCIS,ioos:station:WAVCIS:CSI16:1,2009-06-02T07:15:00Z,29.4012,-89.0355,10.0,27.286,11111222 
WAVCIS,ioos:station:WAVCIS:CSI16:1,2009-06-02T07:30:00Z,29.4012,-89.0355,10.0,27.268,11111222 
WAVCIS,ioos:station:WAVCIS:CSI16:1,2009-06-02T07:45:00Z,29.4012,-89.0355,10.0,27.313,11111222 
WAVCIS,ioos:station:WAVCIS:CSI16:1,2009-06-02T08:00:00Z,29.4012,-89.0355,10.0,27.225,11111222 
WAVCIS,ioos:station:WAVCIS:CSI16:1,2009-06-02T08:15:00Z,29.4012,-89.0355,10.0,27.165,11111222 
WAVCIS,ioos:station:WAVCIS:CSI16:1,2009-06-02T08:30:00Z,29.4012,-89.0355,10.0,27.159,11111222 
WAVCIS,ioos:station:WAVCIS:CSI16:1,2009-06-02T08:45:00Z,29.4012,-89.0355,10.0,27.063,11111222 
WAVCIS,ioos:station:WAVCIS:CSI16:1,2009-06-02T09:00:00Z,29.4012,-89.0355,10.0,27.086,11111222 
WAVCIS,ioos:station:WAVCIS:CSI16:1,2009-06-02T09:15:00Z,29.4012,-89.0355,10.0,27.093,11111222 
WAVCIS,ioos:station:WAVCIS:CSI16:1,2009-06-02T09:30:00Z,29.4012,-89.0355,10.0,27.186,11111222 
WAVCIS,ioos:station:WAVCIS:CSI16:1,2009-06-02T09:45:00Z,29.4012,-89.0355,10.0,27.06,11111222 
WAVCIS,ioos:station:WAVCIS:CSI16:1,2009-06-02T10:00:00Z,29.4012,-89.0355,10.0,27.017,11111222 
WAVCIS,ioos:station:WAVCIS:CSI16:1,2009-06-02T10:15:00Z,29.4012,-89.0355,10.0,27.083,11111222 
WAVCIS,ioos:station:WAVCIS:CSI16:1,2009-06-02T10:30:00Z,29.4012,-89.0355,10.0,27.097,11111222 
WAVCIS,ioos:station:WAVCIS:CSI16:1,2009-06-02T10:45:00Z,29.4012,-89.0355,10.0,26.848,11111222 
WAVCIS,ioos:station:WAVCIS:CSI16:1,2009-06-02T11:00:00Z,29.4012,-89.0355,10.0,26.615,11111222 
WAVCIS,ioos:station:WAVCIS:CSI16:1,2009-06-02T11:15:00Z,29.4012,-89.0355,10.0,27.105,11111222 
WAVCIS,ioos:station:WAVCIS:CSI16:1,2009-06-02T11:30:00Z,29.4012,-89.0355,10.0,26.733,11111222 
WAVCIS,ioos:station:WAVCIS:CSI16:1,2009-06-02T11:45:00Z,29.4012,-89.0355,10.0,27.045,11111222 
WAVCIS,ioos:station:WAVCIS:CSI16:1,2009-06-02T12:00:00Z,29.4012,-89.0355,10.0,27.182,11111222 
WAVCIS,ioos:station:WAVCIS:CSI16:1,2009-06-02T12:15:00Z,29.4012,-89.0355,10.0,27.188,11111222 
WAVCIS,ioos:station:WAVCIS:CSI16:1,2009-06-02T12:30:00Z,29.4012,-89.0355,10.0,27.27,11111222 
WAVCIS,ioos:station:WAVCIS:CSI16:1,2009-06-02T12:45:00Z,29.4012,-89.0355,10.0,27.372,11111222 
WAVCIS,ioos:station:WAVCIS:CSI16:1,2009-06-02T13:00:00Z,29.4012,-89.0355,10.0,27.367,11111222 
WAVCIS,ioos:station:WAVCIS:CSI16:1,2009-06-02T13:15:00Z,29.4012,-89.0355,10.0,27.269,11111222 
WAVCIS,ioos:station:WAVCIS:CSI16:1,2009-06-02T13:30:00Z,29.4012,-89.0355,10.0,27.299,11111222 
WAVCIS,ioos:station:WAVCIS:CSI16:1,2009-06-02T13:45:00Z,29.4012,-89.0355,10.0,27.2,11111222 
WAVCIS,ioos:station:WAVCIS:CSI16:1,2009-06-02T14:00:00Z,29.4012,-89.0355,10.0,27.206,11111222 
WAVCIS,ioos:station:WAVCIS:CSI16:1,2009-06-02T14:15:00Z,29.4012,-89.0355,10.0,27.033,11111222 
WAVCIS,ioos:station:WAVCIS:CSI16:1,2009-06-02T14:30:00Z,29.4012,-89.0355,10.0,26.99,11111222 
WAVCIS,ioos:station:WAVCIS:CSI16:1,2009-06-02T14:45:00Z,29.4012,-89.0355,10.0,26.969,11111222 
WAVCIS,ioos:station:WAVCIS:CSI16:1,2009-06-02T15:00:00Z,29.4012,-89.0355,10.0,27.049,11111222 
WAVCIS,ioos:station:WAVCIS:CSI16:1,2009-06-02T15:15:00Z,29.4012,-89.0355,10.0,26.95,11111222 
WAVCIS,ioos:station:WAVCIS:CSI16:1,2009-06-02T15:30:00Z,29.4012,-89.0355,10.0,26.901,11111222 
WAVCIS,ioos:station:WAVCIS:CSI16:1,2009-06-02T15:45:00Z,29.4012,-89.0355,10.0,26.913,11111222 
WAVCIS,ioos:station:WAVCIS:CSI16:1,2009-06-02T16:00:00Z,29.4012,-89.0355,10.0,26.912,11111222 
WAVCIS,ioos:station:WAVCIS:CSI16:1,2009-06-02T16:15:00Z,29.4012,-89.0355,10.0,26.904,11111222 
WAVCIS,ioos:station:WAVCIS:CSI16:1,2009-06-02T16:30:00Z,29.4012,-89.0355,10.0,26.63,11111222 
WAVCIS,ioos:station:WAVCIS:CSI16:1,2009-06-02T16:45:00Z,29.4012,-89.0355,10.0,26.936,11111222 
WAVCIS,ioos:station:WAVCIS:CSI16:1,2009-06-02T17:00:00Z,29.4012,-89.0355,10.0,26.918,11111222 
WAVCIS,ioos:station:WAVCIS:CSI16:1,2009-06-02T17:15:00Z,29.4012,-89.0355,10.0,27.151,11111222 
WAVCIS,ioos:station:WAVCIS:CSI16:1,2009-06-02T17:30:00Z,29.4012,-89.0355,10.0,27.2,11111222 
WAVCIS,ioos:station:WAVCIS:CSI16:1,2009-06-02T17:45:00Z,29.4012,-89.0355,10.0,27.259,11111222 
WAVCIS,ioos:station:WAVCIS:CSI16:1,2009-06-02T18:00:00Z,29.4012,-89.0355,10.0,27.556,11111222 
WAVCIS,ioos:station:WAVCIS:CSI16:1,2009-06-02T18:15:00Z,29.4012,-89.0355,10.0,27.295,11111222 
WAVCIS,ioos:station:WAVCIS:CSI16:1,2009-06-02T18:30:00Z,29.4012,-89.0355,10.0,27.442,11111222 
WAVCIS,ioos:station:WAVCIS:CSI16:1,2009-06-02T18:45:00Z,29.4012,-89.0355,10.0,27.517,11111222 
WAVCIS,ioos:station:WAVCIS:CSI16:1,2009-06-02T19:00:00Z,29.4012,-89.0355,10.0,27.541,11111222 
WAVCIS,ioos:station:WAVCIS:CSI16:1,2009-06-02T19:15:00Z,29.4012,-89.0355,10.0,27.601,11111222 
WAVCIS,ioos:station:WAVCIS:CSI16:1,2009-06-02T19:30:00Z,29.4012,-89.0355,10.0,27.499,11111222 
WAVCIS,ioos:station:WAVCIS:CSI16:1,2009-06-02T19:45:00Z,29.4012,-89.0355,10.0,27.648,11111222 
WAVCIS,ioos:station:WAVCIS:CSI16:1,2009-06-02T20:00:00Z,29.4012,-89.0355,10.0,27.815,11111222 
WAVCIS,ioos:station:WAVCIS:CSI16:1,2009-06-02T20:15:00Z,29.4012,-89.0355,10.0,27.517,11111222 
WAVCIS,ioos:station:WAVCIS:CSI16:1,2009-06-02T20:30:00Z,29.4012,-89.0355,10.0,27.814,11111222 
WAVCIS,ioos:station:WAVCIS:CSI16:1,2009-06-02T20:45:00Z,29.4012,-89.0355,10.0,27.905,11111222 
WAVCIS,ioos:station:WAVCIS:CSI16:1,2009-06-02T21:00:00Z,29.4012,-89.0355,10.0,28.045,11111222 
WAVCIS,ioos:station:WAVCIS:CSI16:1,2009-06-02T21:15:00Z,29.4012,-89.0355,10.0,27.915,11111222 
WAVCIS,ioos:station:WAVCIS:CSI16:1,2009-06-02T21:30:00Z,29.4012,-89.0355,10.0,27.943,11111222 
WAVCIS,ioos:station:WAVCIS:CSI16:1,2009-06-02T21:45:00Z,29.4012,-89.0355,10.0,27.944,11111222 
WAVCIS,ioos:station:WAVCIS:CSI16:1,2009-06-02T22:00:00Z,29.4012,-89.0355,10.0,27.936,11111222 
WAVCIS,ioos:station:WAVCIS:CSI16:1,2009-06-02T22:15:00Z,29.4012,-89.0355,10.0,27.964,11111222 
WAVCIS,ioos:station:WAVCIS:CSI16:1,2009-06-02T22:30:00Z,29.4012,-89.0355,10.0,27.929,11111222 
WAVCIS,ioos:station:WAVCIS:CSI16:1,2009-06-02T22:45:00Z,29.4012,-89.0355,10.0,27.923,11111222 
WAVCIS,ioos:station:WAVCIS:CSI16:1,2009-06-02T23:00:00Z,29.4012,-89.0355,10.0,27.923,11111222 
WAVCIS,ioos:station:WAVCIS:CSI16:1,2009-06-02T23:15:00Z,29.4012,-89.0355,10.0,27.809,11111222 
WAVCIS,ioos:station:WAVCIS:CSI16:1,2009-06-02T23:30:00Z,29.4012,-89.0355,10.0,27.677,11111222 
WAVCIS,ioos:station:WAVCIS:CSI16:1,2009-06-02T23:45:00Z,29.4012,-89.0355,10.0,27.194,11111222 
WAVCIS,ioos:station:WAVCIS:CSI16:1,2009-06-03T00:00:00Z,29.4012,-89.0355,10.0,27.092,11111222 
WAVCIS,ioos:station:WAVCIS:CSI16:1,2009-06-03T00:15:00Z,29.4012,-89.0355,10.0,27.054,11111222 
WAVCIS,ioos:station:WAVCIS:CSI16:1,2009-06-03T00:30:00Z,29.4012,-89.0355,10.0,27.077,11111222 
WAVCIS,ioos:station:WAVCIS:CSI16:1,2009-06-03T00:45:00Z,29.4012,-89.0355,10.0,27.597,11111222 
WAVCIS,ioos:station:WAVCIS:CSI16:1,2009-06-03T01:00:00Z,29.4012,-89.0355,10.0,27.555,11111222 
WAVCIS,ioos:station:WAVCIS:CSI16:1,2009-06-03T01:15:00Z,29.4012,-89.0355,10.0,27.8,11111222 
WAVCIS,ioos:station:WAVCIS:CSI16:1,2009-06-03T01:30:00Z,29.4012,-89.0355,10.0,27.767,11111222 
WAVCIS,ioos:station:WAVCIS:CSI16:1,2009-06-03T01:45:00Z,29.4012,-89.0355,10.0,27.805,11111222 
WAVCIS,ioos:station:WAVCIS:CSI16:1,2009-06-03T02:00:00Z,29.4012,-89.0355,10.0,27.789,11111222 
WAVCIS,ioos:station:WAVCIS:CSI16:1,2009-06-03T02:15:00Z,29.4012,-89.0355,10.0,27.848,11111222 
WAVCIS,ioos:station:WAVCIS:CSI16:1,2009-06-03T02:30:00Z,29.4012,-89.0355,10.0,27.786,11111222 
WAVCIS,ioos:station:WAVCIS:CSI16:1,2009-06-03T02:45:00Z,29.4012,-89.0355,10.0,27.764,11111222 
WAVCIS,ioos:station:WAVCIS:CSI16:1,2009-06-03T03:00:00Z,29.4012,-89.0355,10.0,27.713,11111222 
WAVCIS,ioos:station:WAVCIS:CSI16:1,2009-06-03T03:15:00Z,29.4012,-89.0355,10.0,27.718,11111222 
WAVCIS,ioos:station:WAVCIS:CSI16:1,2009-06-03T03:30:00Z,29.4012,-89.0355,10.0,27.74,11111222 
WAVCIS,ioos:station:WAVCIS:CSI16:1,2009-06-03T03:45:00Z,29.4012,-89.0355,10.0,27.684,11111222 
WAVCIS,ioos:station:WAVCIS:CSI16:1,2009-06-03T04:00:00Z,29.4012,-89.0355,10.0,27.597,11111222 
WAVCIS,ioos:station:WAVCIS:CSI16:1,2009-06-03T04:15:00Z,29.4012,-89.0355,10.0,27.53,11111222 
WAVCIS,ioos:station:WAVCIS:CSI16:1,2009-06-03T04:30:00Z,29.4012,-89.0355,10.0,27.419,11111222 
WAVCIS,ioos:station:WAVCIS:CSI16:1,2009-06-03T04:45:00Z,29.4012,-89.0355,10.0,27.299,11111222 
WAVCIS,ioos:station:WAVCIS:CSI16:1,2009-06-03T05:00:00Z,29.4012,-89.0355,10.0,27.171,11111222 
WAVCIS,ioos:station:WAVCIS:CSI16:1,2009-06-03T05:15:00Z,29.4012,-89.0355,10.0,26.985,11111222 
WAVCIS,ioos:station:WAVCIS:CSI16:1,2009-06-03T05:30:00Z,29.4012,-89.0355,10.0,27.08,11111222 
WAVCIS,ioos:station:WAVCIS:CSI16:1,2009-06-03T05:45:00Z,29.4012,-89.0355,10.0,27.064,11111222 
WAVCIS,ioos:station:WAVCIS:CSI16:1,2009-06-03T06:00:00Z,29.4012,-89.0355,10.0,26.974,11111222 
WAVCIS,ioos:station:WAVCIS:CSI16:1,2009-06-03T06:15:00Z,29.4012,-89.0355,10.0,26.935,11111222 
WAVCIS,ioos:station:WAVCIS:CSI16:1,2009-06-03T06:30:00Z,29.4012,-89.0355,10.0,26.909,11111222 
WAVCIS,ioos:station:WAVCIS:CSI16:1,2009-06-03T06:45:00Z,29.4012,-89.0355,10.0,26.811,11111222 
WAVCIS,ioos:station:WAVCIS:CSI16:1,2009-06-03T07:00:00Z,29.4012,-89.0355,10.0,26.824,11111222 
WAVCIS,ioos:station:WAVCIS:CSI16:1,2009-06-03T07:15:00Z,29.4012,-89.0355,10.0,26.661,11111222 
WAVCIS,ioos:station:WAVCIS:CSI16:1,2009-06-03T07:30:00Z,29.4012,-89.0355,10.0,26.596,11111222 
WAVCIS,ioos:station:WAVCIS:CSI16:1,2009-06-03T07:45:00Z,29.4012,-89.0355,10.0,26.496,11111222 
WAVCIS,ioos:station:WAVCIS:CSI16:1,2009-06-03T08:00:00Z,29.4012,-89.0355,10.0,26.433,11111222 
WAVCIS,ioos:station:WAVCIS:CSI16:1,2009-06-03T08:15:00Z,29.4012,-89.0355,10.0,26.377,11111222 
WAVCIS,ioos:station:WAVCIS:CSI16:1,2009-06-03T08:30:00Z,29.4012,-89.0355,10.0,26.265,11111222 
WAVCIS,ioos:station:WAVCIS:CSI16:1,2009-06-03T08:45:00Z,29.4012,-89.0355,10.0,26.62,11111222 
WAVCIS,ioos:station:WAVCIS:CSI16:1,2009-06-03T09:00:00Z,29.4012,-89.0355,10.0,26.628,11111222 
WAVCIS,ioos:station:WAVCIS:CSI16:1,2009-06-03T09:15:00Z,29.4012,-89.0355,10.0,26.932,11111222 
WAVCIS,ioos:station:WAVCIS:CSI16:1,2009-06-03T09:30:00Z,29.4012,-89.0355,10.0,26.976,11111222 
WAVCIS,ioos:station:WAVCIS:CSI16:1,2009-06-03T09:45:00Z,29.4012,-89.0355,10.0,27.024,11111222 
WAVCIS,ioos:station:WAVCIS:CSI16:1,2009-06-03T10:00:00Z,29.4012,-89.0355,10.0,27.066,11111222 
WAVCIS,ioos:station:WAVCIS:CSI16:1,2009-06-03T10:15:00Z,29.4012,-89.0355,10.0,27.096,11111222 
WAVCIS,ioos:station:WAVCIS:CSI16:1,2009-06-03T10:30:00Z,29.4012,-89.0355,10.0,27.141,11111222 
WAVCIS,ioos:station:WAVCIS:CSI16:1,2009-06-03T10:45:00Z,29.4012,-89.0355,10.0,27.143,11111222 
WAVCIS,ioos:station:WAVCIS:CSI16:1,2009-06-03T11:00:00Z,29.4012,-89.0355,10.0,27.218,11111222 
WAVCIS,ioos:station:WAVCIS:CSI16:1,2009-06-03T11:15:00Z,29.4012,-89.0355,10.0,27.201,11111222 
WAVCIS,ioos:station:WAVCIS:CSI16:1,2009-06-03T11:30:00Z,29.4012,-89.0355,10.0,27.125,11111222 
WAVCIS,ioos:station:WAVCIS:CSI16:1,2009-06-03T11:45:00Z,29.4012,-89.0355,10.0,27.135,11111222 
WAVCIS,ioos:station:WAVCIS:CSI16:1,2009-06-03T12:00:00Z,29.4012,-89.0355,10.0,27.087,11111222 
WAVCIS,ioos:station:WAVCIS:CSI16:1,2009-06-03T12:15:00Z,29.4012,-89.0355,10.0,27.045,11111222 
WAVCIS,ioos:station:WAVCIS:CSI16:1,2009-06-03T12:30:00Z,29.4012,-89.0355,10.0,26.972,11111222 
WAVCIS,ioos:station:WAVCIS:CSI16:1,2009-06-03T12:45:00Z,29.4012,-89.0355,10.0,26.926,11111222 
WAVCIS,ioos:station:WAVCIS:CSI16:1,2009-06-03T13:00:00Z,29.4012,-89.0355,10.0,26.882,11111222 
WAVCIS,ioos:station:WAVCIS:CSI16:1,2009-06-03T13:15:00Z,29.4012,-89.0355,10.0,25.885,11111222 
WAVCIS,ioos:station:WAVCIS:CSI16:1,2009-06-03T13:30:00Z,29.4012,-89.0355,10.0,25.551,11111222 
WAVCIS,ioos:station:WAVCIS:CSI16:1,2009-06-03T13:45:00Z,29.4012,-89.0355,10.0,25.477,11111222 
WAVCIS,ioos:station:WAVCIS:CSI16:1,2009-06-03T14:00:00Z,29.4012,-89.0355,10.0,25.283,11111222 
WAVCIS,ioos:station:WAVCIS:CSI16:1,2009-06-03T14:15:00Z,29.4012,-89.0355,10.0,25.138,11111222 
WAVCIS,ioos:station:WAVCIS:CSI16:1,2009-06-03T14:30:00Z,29.4012,-89.0355,10.0,25.622,11111222 
WAVCIS,ioos:station:WAVCIS:CSI16:1,2009-06-03T14:45:00Z,29.4012,-89.0355,10.0,25.65,11111222 